Regional Weather Roundup
Issued by NWS Green Bay, WI

Home | Current Version | Previous Version | Graphics & Text | Print | Product List | Glossary Off
Versions: 1 2 3 4 5 6 7 8 9 10 11 12 13 14 15 16 17 18 19 20 21 22 23 24 25 26 27 28 29 30 31 32 33 34 35 36 37 38 39 40 41 42 43 44 45 46 47 48 49 50

000
ASUS43 KGRB 050600
RWRGRB

NORTH-CENTRAL AND NORTHEAST WISCONSIN REGIONAL WEATHER ROUNDUP
NATIONAL WEATHER SERVICE GREEN BAY WI
100 AM CDT THU MAY 05 2016

WIZ005-009-010>012-018-019-050700-
NORTH CENTRAL WISCONSIN

CITY           SKY/WX    TMP DP  RH WIND       PRES   REMARKS
IRONWOOD         N/A     30  28  93 CALM      29.98S
MANITOWISH WTR NOT AVBL
ARBOR VITAE    NOT AVBL
EAGLE RIVER    NOT AVBL
LAND O LAKES   NOT AVBL
RHINELANDER    CLEAR     35  30  82 CALM      29.99R
PHILLIPS       NOT AVBL
ANTIGO         NOT AVBL
TOMAHAWK       NOT AVBL
MERRILL        NOT AVBL
$$

WIZ013-073-050700-
NORTHEAST WISCONSIN

CITY           SKY/WX    TMP DP  RH WIND       PRES   REMARKS
IRON MOUNTAIN  CLEAR     31  27  85 CALM      29.97R
MARINETTE      CLEAR     37  30  75 NW8       29.98S
$$

WIZ017-030-035>037-045-050700-
CENTRAL WISCONSIN

CITY           SKY/WX    TMP DP  RH WIND       PRES   REMARKS
MEDFORD        NOT AVBL
WAUSAU         CLEAR     41  32  70 CALM      29.96S
MOSINEE        NOT AVBL
MARSHFIELD     CLEAR     41  31  67 N6        29.97S
WISC RAPIDS    CLEAR     40  30  67 NE6       29.99R
STEVENS POINT  NOT AVBL
WAUPACA        NOT AVBL
SHAWANO        NOT AVBL
CLINTONVILLE   NOT AVBL
WAUTOMA        CLEAR     38  32  79 CALM      29.98S
$$

WIZ038-039-048-051-050700-
FOX VALLEY

CITY           SKY/WX    TMP DP  RH WIND       PRES   REMARKS
NWS GREEN BAY  CLEAR     37  31  78 N6        29.97S
APPLETON       NOT AVBL
OSHKOSH        CLEAR     40  31  70 N10       29.96R
FOND DU LAC    CLEAR     42  33  70 N17G23    29.96S
$$

WIZ022-050-052-050700-
EAST CENTRAL WISCONSIN

CITY           SKY/WX    TMP DP  RH WIND       PRES   REMARKS
EPHRAIM        NOT AVBL
STURGEON BAY   CLEAR     37  30  75 N15       29.98S
MANITOWOC      NOT AVBL
SHEBOYGAN      CLEAR     39  31  72 N10       29.95R
$$

LMZ563-521-522-541>543-050700-
LAKESHORE

STATION/POSITION TIME  TEMP    WIND        PRES    VSBY  WAVE
                       AIR SEA DIR/SP/G                  HT/PER
                 (UTC) (F)     (DEG/KT/KT) (MB)    (MI)  (FT/S)
SHEBOYGAN LKSHOR 0500   42     360/ 21/ 23 1014.4R
KEWAUNEE LKSHORE 0500   40     350/  7/ 11 1013.4S
ALGOMA MARINA    0545          360/ 10/ 14   N/A
NORTHPORT PIER   0522   40     340/ 13/ 18 1014.2S
N MID LAKE BUOY  0450   39 38  340/ 16/ 19 1013.4S         3/ 5
CHAMBERS ISLAND  0500   40     320/ 14/ 17 1014.6S
MENOMINEE LKSHOR 0500   40     330/ 13/ 15 1013.6R
$$



USA.gov is the U.S. government's official web portal to all federal, state and local government web resources and services.